This is the latest recevied weather packets stored in our database for station/object OE-11053. If no packets are shown the sender has not sent any weather packets the latest 10 day(s).
| Time | Temp. | Humidity | Pressure | Rain* | Wind** | Luminosity | Snow |
|---|---|---|---|---|---|---|---|
| 1787970923 | 16.11° C | 72% | 1017.3 hPa | 0 mm | - | 0 W/m² | - |
| 1787970323 | 16.11° C | 73% | 1017.3 hPa | 0 mm | - | 0 W/m² | - |
| 1787969495 | 16.11° C | 75% | 1017.2 hPa | 0 mm | - | 0 W/m² | - |
| 1787969122 | 16.11° C | 77% | 1017.2 hPa | 0 mm | - | 0 W/m² | - |
| 1787968523 | 16.11° C | 79% | 1017.3 hPa | 0 mm | - | 0 W/m² | - |
| 1787967695 | 16.11° C | 82% | 1017.4 hPa | 0 mm | - | 0 W/m² | - |
| 1787967323 | 16.11° C | 82% | 1017.5 hPa | 0 mm | - | 0 W/m² | - |
| 1787966723 | 16.11° C | 83% | 1017.7 hPa | 0 mm | - | 0 W/m² | - |
| 1787965896 | 16.11° C | 83% | 1017.6 hPa | 0 mm | - | 0 W/m² | - |
| 1787964923 | 16.11° C | 83% | 1016.7 hPa | 0 mm | - | 0 W/m² | - |
| 1787964096 | 16.11° C | 83% | 1016.6 hPa | 0 mm | - | 0 W/m² | - |
| 1787963723 | 16.11° C | 83% | 1017.5 hPa | 0 mm | - | 0 W/m² | - |
| 1787963122 | 16.11° C | 85% | 1017.8 hPa | 0 mm | - | 0 W/m² | - |
| 1787962295 | 16.11° C | 84% | 1018.2 hPa | 0 mm | - | 0 W/m² | - |
| 1787961922 | 16.11° C | 86% | 1018.3 hPa | 0.25 mm | - | 0 W/m² | - |
| 1787961323 | 16.11° C | 86% | 1018.4 hPa | 0.25 mm | - | 0 W/m² | - |
| 1787960496 | 16.11° C | 88% | 1018.5 hPa | 0.25 mm | - | 0 W/m² | - |
| 1787960123 | 16.67° C | 89% | 1018.3 hPa | 0.51 mm | - | 0 W/m² | - |
| 1787959522 | 16.67° C | 91% | 1018.2 hPa | 0.51 mm | - | 0 W/m² | - |
| 1787958923 | 16.67° C | 92% | 1018.3 hPa | 1.27 mm | - | 0 W/m² | - |
| 1787958323 | 16.67° C | 91% | 1018.5 hPa | 1.02 mm | - | 0 W/m² | - |
| 1787957723 | 16.67° C | 91% | 1018.5 hPa | 1.02 mm | - | 0 W/m² | - |
| 1787956896 | 16.67° C | 92% | 1018.4 hPa | 1.02 mm | - | 0 W/m² | - |
| 1787956523 | 16.67° C | 89% | 1018.3 hPa | 1.02 mm | - | 0 W/m² | - |
| 1787955923 | 16.67° C | 88% | 1018.3 hPa | 0.76 mm | - | 0 W/m² | - |
* Rain latest hour (hover to see other rain measurements)
** Current wind speed in m/s (hover to see current wind gust speed)